NOAA 16 DEB, 42366

Orbit data source: Space-Track

NOAA 16 DEB, 42366 is space debris in SSO originally from a launch on Thu, 21 Sep 2000 UTC launched from the Air Force Western Test Range (AFWTR). Debris objects in space refer to the collection of defunct objects orbiting the Earth. Examples of debris include non-operational satellites, rocket bodies, and fragments generated from explosions, collisions, or faulty payload assembly.

Loading next visibility...
Identifier
42366, 2000-055RJ
Orbit
SSO
Last TLE update
5 hours ago
Origin
Manufacturer
Unknown
Mission
Spacecraft
Bus & Motor
Unknown
Mass
Unknown
Launch date (UTC)
2000-09-21 (25 years ago)
Launch vehicle
Unknown
Launch site
Air Force Western Test Range (AFWTR)
Object type
Payload
Rocket body
Debris
Shape & HBR
Unknown
Radar Cross Section
Small (<0.1 m²)

Expand to show TLE details & history

TLE from 5 hours ago
0 NOAA 16 DEB
1 42366U 00055RJ  25190.12332436  .00014781  00000-0  17520-2 0  9990
2 42366  98.8844  69.7195 0029313 169.1905 190.9943 14.84344192493595
Epoch: 2025-07-09T02:57Z
TLE epoch observation values (Epoch: 2025-07-09T02:57:35.224Z)
Latitude
0.00001°
Longitude
98.01426°
Altitude
638.772 km
Speed
7.528 km/s
True Right ascension
04h 38m 52s
True Declination
0° 00' 00"
Sunlit
Object was in daylight at epoch
Visualization orbit readout
Latitude
12.98996°
Longitude
96.18673°
Altitude
636.492 km
Speed
7.531 km/s
Apparent Right ascension
05h 58m 05s
Apparent Declination
-13° 20' 31"
Sunlit
Object is in daylight
Visualization observer readout
Local Sidereal Time
20:01:54
Azimuth
54.392° ENE
Elevation
-52.004°
Doppler factor
1
Orbital elements
Apogee altitude
633.219 km
Perigee altitude
592.235 km
Semi-major axis
6,990.864 km
Eccentricity
0.00293
Inclination
98.8844°
RAAN
69.7195°
Arg. of periapsis
169.1905°
True anomaly
Unknown
Mean anomaly
190.9943°
Eccentric anomaly
Unknown
Mean motion
3.71319 °/min
Orbital period
96.95 mins
BSTAR
0.001752
Loading maneuver chart data...
Loading SW <> Apogee altitude chart data...
Loading historical data...
Loading historical data...
Loading historical data...
Loading historical data...
Loading historical data...
Loading historical data...
Loading historical data...

NOAA 16 DEB Visibility forecast

Observer location: undefined°, undefined°

Span
Click to sort rows by Start time (UTC) header in descending order
Start Az.
Max El. time (UTC)
Max El. Az.
Max El.
End time (UTC)
End Az.
7 mins2025-07-09 16:01:20.483Z169.252° S2025-07-09 16:05:20.483Z309.587° NW43.888°2025-07-09 16:08:20.483Z342.859° N
6 mins2025-07-10 05:25:20.483Z350.965° N2025-07-10 05:28:20.483Z270.564° WNW33.338°2025-07-10 05:31:20.483Z220.261° SW
|